Skip Page Navigation
NASA JPL Caltech
NASA Logo - Jet Propulsion Laboratory + View the NASA Portal
+ Center for Near-Earth Object Studies
JPL Home Earth Solar System Stars & Galaxies Technology
JPL Solar System Dynamics
BODIES ORBITS EPHEMERIDES TOOLS PHYSICAL DATA DISCOVERY FAQ SITE MAP
JPL Small-Body Database Browser
Search: [ help ]  
(2020 FL6)
Classification: Apollo [NEO]          SPK-ID: 54016411
Ephemeris | Orbit Diagram | Orbital Elements | Mission Design | Physical Parameters | Close-Approach Data ]

[ hide orbit diagram ]

For accurate long-term ephemerides, please instead use our Horizons system.This orbit viewer was implemented using two-body methods, and hence should not be used for determining accurate long-term trajectories (over several years or decades) or planetary encounter circumstances.


Orbital Elements at Epoch 2459200.5 (2020-Dec-17.0) TDB
Reference: JPL 7 (heliocentric ecliptic J2000)
 Element Value Uncertainty (1-sigma)   Units 
e .4851969593668986 0.0005552  
a 1.657738060252321 0.001553 au
q .8534085939911142 0.00012091 au
i 3.40200291637754 0.003455 deg
node 3.021833361106826 0.00034751 deg
peri 249.1748171117736 0.0015765 deg
M 99.0499327832562 0.13403 deg
tp 2458986.001640909760
(2020-May-16.50164091)
0.011166 TDB
period 779.6008245806693
2.13
1.0955
0.002999
d
yr
n .4617747809510545 0.00064888 deg/d
Q 2.462067526513527 0.0023064 au
  Orbit Determination Parameters
   # obs. used (total)      80  
   data-arc span      8 days  
   first obs. used      2020-03-26  
   last obs. used      2020-04-03  
   planetary ephem.      DE441  
   SB-pert. ephem.      SB441-N16  
   condition code      7  
   norm. resid. RMS      .30548  
   source      ORB  
   producer      Otto Matic  
   solution date      2021-Apr-15 22:21:16  

Additional Information
 Earth MOID = .0126281 au 
 Jupiter MOID = 2.60524 au 
 T_jup = 4.124 
[ hide covariance matrix ]
Orbital Elements at Epoch 2458937.5 (2020-Mar-29.0) TDB
Reference: JPL 7 (heliocentric ecliptic J2000)
 Element Value Uncertainty (1-sigma)   Units 
e .4856957874801007 0.00055452  
q .8537614296039623 0.00012159 au
tp 2458985.975478260560
(2020-May-16.47547826)
0.011045 TDB
node 3.231823813846247 0.00031226 deg
peri 248.9096006304184 0.0024027 deg
i 3.45628475531388 0.0033373 deg
  Orbit Determination Parameters
   # obs. used (total)      80  
   data-arc span      8 days  
   first obs. used      2020-03-26  
   last obs. used      2020-04-03  
   planetary ephem.      DE441  
   SB-pert. ephem.      SB441-N16  
   condition code      7  
   norm. resid. RMS      .30548  
   source      ORB  
   producer      Otto Matic  
   solution date      2021-Apr-15 22:21:16  

Additional Information
 Jupiter MOID = 2.60524 au 
 T_jup = 4.124 
Orbit Covariance (6×6)
  e q tp node peri i
e 3.074885270604683E-7 -6.742417189970302E-8 -6.124674905050577E-6 -1.700046499705936E-7 1.330192971750938E-6 1.85040203116201E-6
q -6.742417189970302E-8 1.478466659691659E-8 1.342952722281146E-6 3.729328853098729E-8 -2.917479347604884E-7 -4.057300502180845E-7
tp -6.124674905050577E-6 1.342952722281146E-6 .0001219963154407445 3.385141568465958E-6 -2.64890538054494E-5 -3.685794874127594E-5
node -1.700046499705936E-7 3.729328853098729E-8 3.385141568465958E-6 9.750341185550691E-8 -7.414119913112755E-7 -1.020701892970122E-6
peri 1.330192971750938E-6 -2.917479347604884E-7 -2.64890538054494E-5 -7.414119913112755E-7 5.772967001468606E-6 8.000258312952418E-6
i 1.85040203116201E-6 -4.057300502180845E-7 -3.685794874127594E-5 -1.020701892970122E-6 8.000258312952418E-6 1.113727391177865E-5

Ephemeris | Orbit Diagram | Orbital Elements | Mission Design | Physical Parameters | Close-Approach Data ]

Physical Parameter Table
Parameter Symbol Value Units Sigma Reference Notes
absolute magnitude H 25.3   .36627 E2020G29 autocmod 2.8

[ show close-approach data ]
Ephemeris | Orbit Diagram | Orbital Elements | Mission Design | Physical Parameters | Close-Approach Data ]
ABOUT SSD CREDITS/AWARDS PRIVACY/COPYRIGHT GLOSSARY LINKS
FirstGov 2021-Jun-23 13:04 UT
(server date/time)  
NASA Home Page
Site Manager:   Ryan S. Park
Webmaster  Alan B. Chamberlin